When you browse on this site, cookies collect data to enhance your experience and personalize the content and advertising you see.
Visit our Privacy Policy to learn more. By continuing to use the site, you agree to this use of cookies and data.
EN

Hourly Weather Goksuv

Today, 24 September, Thursday

Time Temperature Precipitation Wind Pressure Humidity
00:00 +18°C° 0 mm 3 mps 758 mmHg 83%
01:00 +18°C° 0 mm 2 mps 758 mmHg 83%
02:00 +18°C° 0 mm 2 mps 759 mmHg 84%
03:00 +18°C° 0 mm 2 mps 759 mmHg 84%
04:00 +18°C° 0 mm 2 mps 758 mmHg 85%
05:00 +18°C° 0 mm 2 mps 758 mmHg 85%
06:00 +18°C° 0 mm 1 mps 758 mmHg 86%
07:00 +20°C° 0 mm 2 mps 759 mmHg 77%
08:00 +22°C° 0 mm 3 mps 759 mmHg 68%
09:00 +25°C° 0 mm 4 mps 759 mmHg 58%
10:00 +26°C° 0 mm 4 mps 758 mmHg 54%
11:00 +28°C° 0 mm 5 mps 758 mmHg 50%
12:00 +29°C° 0 mm 5 mps 758 mmHg 47%
13:00 +28°C° 0 mm 5 mps 758 mmHg 48%
14:00 +28°C° 0 mm 6 mps 758 mmHg 50%
15:00 +28°C° 0 mm 6 mps 758 mmHg 52%
16:00 +26°C° 0 mm 5 mps 758 mmHg 59%
17:00 +23°C° 0 mm 4 mps 758 mmHg 65%
18:00 +22°C° 0 mm 4 mps 758 mmHg 72%
19:00 +21°C° 0 mm 3 mps 758 mmHg 76%
20:00 +21°C° 0 mm 3 mps 758 mmHg 80%
21:00 +20°C° 0 mm 2 mps 758 mmHg 85%
22:00 +20°C° 0 mm 2 mps 758 mmHg 85%
23:00 +20°C° 0 mm 2 mps 758 mmHg 85%

Tomorrow, 25 September, Friday

Time Temperature Precipitation Wind Pressure Humidity
00:00 +19°C° 0 mm 2 mps 758 mmHg 86%
01:00 +19°C° 0 mm 2 mps 758 mmHg 86%
02:00 +19°C° 0 mm 2 mps 757 mmHg 87%
03:00 +20°C° 0 mm 1 mps 757 mmHg 87%
04:00 +20°C° 0 mm 1 mps 757 mmHg 87%
05:00 +20°C° 0 mm 1 mps 757 mmHg 86%
06:00 +19°C° 0 mm 1 mps 757 mmHg 86%
07:00 +21°C° 0 mm 2 mps 757 mmHg 73%
08:00 +24°C° 0 mm 3 mps 757 mmHg 60%
09:00 +27°C° 0 mm 3 mps 757 mmHg 48%
10:00 +28°C° 0 mm 5 mps 757 mmHg 42%
11:00 +30°C° 0 mm 6 mps 756 mmHg 36%
12:00 +32°C° 0 mm 7 mps 756 mmHg 30%
13:00 +30°C° 0 mm 7 mps 756 mmHg 31%
14:00 +30°C° 0 mm 7 mps 756 mmHg 31%
15:00 +31°C° 0 mm 8 mps 756 mmHg 32%
16:00 +28°C° 0 mm 7 mps 755 mmHg 36%
17:00 +26°C° 0 mm 7 mps 755 mmHg 40%
18:00 +24°C° 0 mm 6 mps 755 mmHg 44%
19:00 +23°C° 0 mm 6 mps 755 mmHg 47%
20:00 +23°C° 0 mm 5 mps 756 mmHg 50%
21:00 +22°C° 0 mm 5 mps 756 mmHg 53%
22:00 +22°C° 0.1 mm 5 mps 755 mmHg 55%
23:00 +22°C° 0.1 mm 4 mps 755 mmHg 56%

Day after tomorrow, 26 September, Saturday

Time Temperature Precipitation Wind Pressure Humidity
00:00 +21°C° 0.1 mm 4 mps 755 mmHg 58%
01:00 +21°C° 0 mm 4 mps 755 mmHg 57%
02:00 +21°C° 0 mm 4 mps 755 mmHg 56%
03:00 +21°C° 0 mm 4 mps 755 mmHg 55%
04:00 +21°C° 0 mm 4 mps 755 mmHg 55%
05:00 +21°C° 0 mm 4 mps 755 mmHg 55%
06:00 +21°C° 0 mm 3 mps 755 mmHg 55%
07:00 +22°C° 0 mm 4 mps 755 mmHg 49%
08:00 +25°C° 0 mm 5 mps 755 mmHg 43%
09:00 +26°C° 0 mm 6 mps 755 mmHg 36%
10:00 +27°C° 0 mm 7 mps 755 mmHg 36%
11:00 +28°C° 0 mm 8 mps 755 mmHg 36%
12:00 +29°C° 0 mm 9 mps 755 mmHg 36%
13:00 +28°C° 0 mm 9 mps 755 mmHg 40%
14:00 +27°C° 0 mm 9 mps 755 mmHg 44%
15:00 +27°C° 0 mm 9 mps 755 mmHg 48%
16:00 +24°C° 0 mm 8 mps 755 mmHg 54%
17:00 +23°C° 0 mm 7 mps 755 mmHg 60%
18:00 +22°C° 0 mm 6 mps 756 mmHg 66%
19:00 +22°C° 0.1 mm 6 mps 756 mmHg 68%
20:00 +22°C° 0.1 mm 6 mps 756 mmHg 70%
21:00 +21°C° 0.1 mm 5 mps 757 mmHg 72%
22:00 +21°C° 0.1 mm 5 mps 756 mmHg 71%
23:00 +21°C° 0.1 mm 5 mps 756 mmHg 71%

27 September, Sunday

Time Temperature Precipitation Wind Pressure Humidity
00:00 +21°C° 0.1 mm 5 mps 756 mmHg 71%
01:00 +20°C° 0 mm 5 mps 756 mmHg 71%
02:00 +20°C° 0 mm 5 mps 756 mmHg 71%
03:00 +20°C° 0 mm 5 mps 756 mmHg 71%
04:00 +20°C° 0 mm 5 mps 756 mmHg 70%
05:00 +20°C° 0 mm 5 mps 757 mmHg 69%
06:00 +20°C° 0 mm 5 mps 757 mmHg 68%
07:00 +21°C° 0 mm 6 mps 757 mmHg 61%
08:00 +23°C° 0 mm 7 mps 757 mmHg 55%
09:00 +26°C° 0 mm 8 mps 757 mmHg 48%
10:00 +26°C° 0 mm 9 mps 757 mmHg 46%
11:00 +27°C° 0 mm 9 mps 757 mmHg 44%
12:00 +27°C° 0 mm 10 mps 757 mmHg 42%
13:00 +27°C° 0 mm 10 mps 757 mmHg 44%
14:00 +26°C° 0 mm 10 mps 757 mmHg 47%
15:00 +26°C° 0 mm 10 mps 757 mmHg 49%
16:00 +23°C° 0 mm 9 mps 758 mmHg 54%
17:00 +22°C° 0 mm 8 mps 758 mmHg 59%
18:00 +20°C° 0 mm 7 mps 758 mmHg 64%
19:00 +20°C° 0 mm 7 mps 758 mmHg 65%
20:00 +20°C° 0 mm 6 mps 759 mmHg 66%
21:00 +19°C° 0 mm 6 mps 759 mmHg 67%
22:00 +19°C° 0 mm 6 mps 759 mmHg 67%
23:00 +19°C° 0 mm 5 mps 759 mmHg 67%

28 September, Monday

Time Temperature Precipitation Wind Pressure Humidity
00:00 +19°C° 0 mm 5 mps 759 mmHg 67%
01:00 +19°C° 0 mm 5 mps 759 mmHg 65%
02:00 +19°C° 0 mm 4 mps 759 mmHg 64%
03:00 +19°C° 0 mm 4 mps 759 mmHg 62%
04:00 +19°C° 0 mm 4 mps 759 mmHg 61%
05:00 +19°C° 0 mm 4 mps 759 mmHg 59%
06:00 +19°C° 0 mm 4 mps 759 mmHg 58%
07:00 +21°C° 0 mm 5 mps 759 mmHg 52%
08:00 +23°C° 0 mm 5 mps 760 mmHg 46%
09:00 +26°C° 0 mm 6 mps 760 mmHg 40%
10:00 +27°C° 0 mm 5 mps 760 mmHg 40%
11:00 +27°C° 0 mm 5 mps 760 mmHg 39%
12:00 +28°C° 0 mm 5 mps 761 mmHg 38%
13:00 +28°C° 0 mm 5 mps 760 mmHg 41%
14:00 +27°C° 0 mm 6 mps 760 mmHg 43%
15:00 +27°C° 0 mm 7 mps 760 mmHg 46%
16:00 +24°C° 0 mm 6 mps 761 mmHg 51%
17:00 +23°C° 0 mm 6 mps 761 mmHg 56%
18:00 +21°C° 0 mm 5 mps 761 mmHg 61%
19:00 +21°C° 0 mm 5 mps 761 mmHg 63%
20:00 +20°C° 0 mm 5 mps 761 mmHg 64%
21:00 +20°C° 0 mm 5 mps 761 mmHg 66%
22:00 +20°C° 0 mm 5 mps 761 mmHg 67%
23:00 +19°C° 0 mm 5 mps 761 mmHg 67%

29 September, Tuesday

Time Temperature Precipitation Wind Pressure Humidity
00:00 +19°C° 0 mm 5 mps 761 mmHg 68%
01:00 +19°C° 0 mm 4 mps 761 mmHg 69%
02:00 +19°C° 0 mm 4 mps 760 mmHg 69%
03:00 +18°C° 0 mm 4 mps 760 mmHg 70%
04:00 +18°C° 0 mm 4 mps 760 mmHg 70%
05:00 +18°C° 0 mm 4 mps 760 mmHg 70%
06:00 +18°C° 0 mm 3 mps 760 mmHg 70%
07:00 +20°C° 0 mm 5 mps 760 mmHg 62%
08:00 +22°C° 0 mm 6 mps 760 mmHg 53%
09:00 +24°C° 0 mm 7 mps 759 mmHg 44%
10:00 +26°C° 0 mm 8 mps 759 mmHg 42%
11:00 +27°C° 0 mm 9 mps 759 mmHg 40%
12:00 +28°C° 0 mm 10 mps 758 mmHg 38%
13:00 +27°C° 0 mm 10 mps 758 mmHg 39%
14:00 +26°C° 0 mm 11 mps 758 mmHg 41%
15:00 +26°C° 0 mm 11 mps 757 mmHg 42%
16:00 +23°C° 0 mm 10 mps 757 mmHg 46%
17:00 +22°C° 0 mm 9 mps 757 mmHg 51%
18:00 +20°C° 0 mm 8 mps 757 mmHg 55%
19:00 +20°C° 0 mm 8 mps 757 mmHg 59%
20:00 +20°C° 0 mm 8 mps 757 mmHg 62%
21:00 +18°C° 0 mm 7 mps 757 mmHg 65%
22:00 +18°C° 0 mm 7 mps 757 mmHg 67%
23:00 +18°C° 0 mm 7 mps 756 mmHg 69%
Show more